Showing default

ICEYE-X40, 60549

Orbit data source: Space-Track

ICEYE-X40, 60549 is a payload satellite owned by Yahsat (AE) in SSO that was launched on Fri, 16 Aug 2024 UTC via an FALCON 9 launch vehicle from the Air Force Western Test Range (AFWTR). Payload-class satellites include a variety of spacecraft equipped with specific instruments for various scientific and technological missions. These include communications satellites like Starlink; space stations such as the ISS; scientific satellites like the Hubble; Earth observation satellites from companies like Planet Labs, Umbra, and HawkEye 360; GPS; miniature CubeSats for education and research; and military/defense satellites.

Loading next visibility...
Identifier
60549, 2024-149CK
Orbit
SSO
Country
Flag of AEAE / UAE
Related business
Manufacturer
ICEYE
Mission
Operational Commercial Radar Imaging
Bus & Motor
ICEYE, Unknown motor
Mass
80 kg wet, 80 kg dry
Launch date (UTC)
2024-08-16 (2 years ago)
Launch vehicle
FALCON 9
Launch site
Air Force Western Test Range (AFWTR)
Object type
Payload
Rocket body
Debris
Shape & HBR
Box + 1 Pan, 2.4 m
Radar Cross Section
0.776 m², Medium (>0.1 m² and < 1m²)

Expand to show TLE details & history
Last TLE update: 2 days ago

TLE from 2 days ago
0 ICEYE-X40
1 60549U 24149CK  26173.44613169  .00000993  00000-0  89067-4 0  9992
2 60549  97.6818 249.8577 0006232  66.7576 293.4302 14.97958047100869
Epoch: 2026-06-22T10:42Z
TLE epoch observation values (Epoch: 2026-06-22T10:42:25.778Z)
Latitude
0.00001°
Longitude
178.61836°
Altitude
574.538 km
Speed
7.574 km/s
True Right ascension
16h 39m 25s
True Declination
0° 00' 00"
Sunlit
Object was in full shadow at epoch
Visualization orbit readout
Latitude
Unknown
Longitude
Unknown
Altitude
Unknown
Speed
Unknown
Apparent Right ascension
Unknown
Apparent Declination
Unknown
Sunlit
N/A
Visualization observer readout
Local Sidereal Time
12:20:09
Azimuth
Unknown
Elevation
Unknown
Doppler factor
Unknown
Orbital elements
Apogee altitude
574.544 km
Perigee altitude
565.883 km
Semi-major axis
6,948.351 km
Eccentricity
0.00062
Inclination
97.6818°
RAAN
249.8577°
Arg. of periapsis
66.7576°
True anomaly
293.36465°
Mean anomaly
293.4302°
Eccentric anomaly
293.39743°
Mean motion
3.74732 °/min
Orbital period
96.07 mins
BSTAR
0.000089067
Loading maneuver chart data...
Computing Atmospheric mass density...
Loading historical data...
Loading historical data...
Loading historical data...
Loading historical data...
Loading historical data...
Loading historical data...
Loading historical data...

Documentation

Showing up to 5 results
|